Temp
-10 -10 -10 -10 -10 -11 -11 -12 -11 -11 -11 -11 -10 -10 -9 -10 -10 -11 -11 -11 -11 -10 -10 -10 -10 -10 -10 -9 -9 -9 -9 -9 -9 -9 -8 -8 -8 -8 -8 -8 -8 -8 -8 -8 -9 -8 -9 -9 -9
-11 -11 -10 -10 -10 -10 -12 -12 -11 -11 -11 -11 -10 -10 -10 -10 -11 -11 -11 -11 -11 -10 -10 -10 -10 -10 -10 -9 -9 -9 -9 -9 -9 -9 -9 -8 -8 -9 -8 -8 -8 -8 -8 -9 -9 -9 -9 -9 -9
-11 -11 -11 -11 -10 -11 -12 -11 -11 -12 -11 -11 -10 -10 -10 -10 -10 -11 -11 -11 -11 -10 -10 -10 -10 -10 -10 -9 -10 -9 -9 -9 -9 -9 -9 -9 -9 -9 -8 -8 -8 -9 -9 -9 -9 -9 -9 -9 -9
-11 -11 -11 -11 -11 -11 -12 -11 -12 -11 -12 -11 -10 -10 -10 -10 -10 -11 -11 -11 -11 -11 -10 -10 -10 -10 -10 -10 -10 -9 -9 -9 -9 -9 -9 -9 -9 -9 -9 -9 -9 -9 -9 -9 -9 -9 -9 -9 -10
-12 -12 -11 -11 -11 -12 -12 -11 -12 -12 -12 -11 -11 -10 -10 -10 -10 -11 -11 -11 -11 -11 -11 -10 -10 -10 -10 -10 -10 -9 -9 -9 -9 -9 -9 -9 -9 -9 -9 -9 -9 -9 -9 -9 -9 -10 -10 -10 -10
-12 -12 -11 -11 -12 -12 -12 -12 -11 -12 -12 -11 -11 -11 -10 -10 -10 -11 -11 -11 -11 -11 -11 -11 -10 -10 -10 -10 -10 -9 -10 -9 -9 -9 -9 -9 -9 -9 -9 -9 -9 -9 -9 -9 -10 -9 -10 -10 -10
-13 -12 -12 -12 -12 -12 -13 -12 -11 -12 -12 -12 -11 -11 -11 -11 -11 -11 -11 -11 -11 -11 -11 -11 -10 -10 -10 -10 -10 -10 -10 -9 -9 -9 -9 -9 -9 -9 -9 -9 -9 -9 -9 -9 -10 -10 -10 -10 -10
-13 -13 -12 -12 -12 -13 -13 -12 -12 -12 -12 -12 -12 -12 -12 -11 -11 -12 -12 -11 -11 -11 -11 -11 -11 -10 -10 -10 -10 -10 -10 -10 -10 -10 -9 -9 -9 -9 -9 -9 -9 -9 -9 -9 -10 -10 -10 -10 -10
-13 -13 -13 -13 -14 -14 -12 -12 -12 -12 -12 -11 -11 -12 -12 -12 -12 -12 -12 -12 -12 -12 -12 -11 -11 -11 -10 -10 -10 -10 -10 -10 -10 -10 -10 -10 -10 -9 -9 -9 -9 -9 -9 -9 -10 -10 -10 -10 -10
-14 -13 -13 -14 -13 -13 -13 -12 -12 -12 -12 -12 -12 -12 -12 -12 -12 -12 -12 -12 -12 -12 -12 -12 -12 -11 -11 -10 -10 -10 -10 -10 -10 -10 -10 -10 -10 -10 -10 -10 -10 -9 -10 -10 -10 -10 -10 -10 -11
-13 -14 -14 -14 -14 -13 -14 -13 -12 -12 -12 -12 -12 -12 -12 -12 -12 -12 -12 -12 -12 -12 -12 -12 -12 -12 -11 -11 -11 -11 -10 -10 -10 -10 -10 -10 -10 -10 -10 -10 -10 -10 -10 -10 -10 -10 -10 -10 -11
-14 -14 -14 -14 -14 -14 -14 -14 -13 -12 -12 -13 -13 -13 -12 -13 -13 -12 -13 -13 -12 -13 -13 -12 -12 -12 -12 -12 -11 -11 -11 -10 -10 -10 -10 -10 -10 -10 -10 -10 -10 -10 -10 -10 -10 -10 -10 -10 -11
-15 -14 -15 -15 -14 -14 -14 -14 -14 -13 -13 -13 -13 -13 -13 -12 -13 -13 -13 -12 -13 -12 -13 -13 -12 -12 -12 -12 -12 -11 -11 -11 -11 -10 -10 -10 -10 -10 -10 -10 -10 -10 -10 -10 -10 -10 -10 -11 -11
-15 -15 -15 -15 -14 -14 -15 -15 -15 -15 -14 -13 -13 -13 -13 -13 -13 -13 -13 -13 -13 -13 -13 -13 -13 -13 -12 -12 -12 -12 -12 -12 -11 -11 -11 -10 -10 -10 -10 -10 -10 -10 -10 -10 -10 -10 -10 -11 -11
-16 -16 -15 -15 -15 -14 -14 -15 -14 -15 -14 -14 -13 -13 -13 -13 -13 -13 -14 -13 -13 -13 -13 -13 -13 -13 -13 -13 -13 -13 -13 -12 -12 -12 -11 -11 -11 -10 -10 -10 -10 -10 -10 -10 -10 -10 -11 -11 -11
-16 -16 -16 -15 -15 -15 -14 -14 -15 -16 -15 -14 -14 -13 -13 -13 -13 -13 -13 -13 -13 -13 -14 -14 -14 -14 -13 -13 -13 -13 -13 -13 -13 -13 -13 -12 -11 -11 -11 -11 -11 -11 -10 -11 -11 -11 -11 -11 -11
-16 -16 -16 -16 -16 -15 -14 -14 -15 -15 -15 -15 -15 -14 -13 -14 -14 -13 -13 -13 -13 -13 -13 -14 -14 -13 -14 -14 -13 -13 -13 -13 -13 -13 -13 -13 -13 -12 -12 -11 -11 -11 -11 -11 -11 -11 -11 -11 -11
-16 -16 -16 -17 -16 -15 -15 -15 -15 -15 -15 -15 -16 -16 -15 -14 -14 -14 -14 -13 -13 -14 -13 -13 -13 -14 -14 -14 -14 -13 -13 -13 -13 -13 -13 -13 -13 -13 -13 -12 -12 -11 -11 -11 -11 -11 -11 -11 -11
-17 -17 -16 -16 -17 -16 -16 -16 -16 -15 -15 -16 -16 -17 -16 -15 -15 -14 -14 -14 -13 -13 -13 -13 -13 -13 -13 -14 -13 -14 -14 -14 -13 -13 -13 -13 -13 -13 -13 -13 -12 -12 -12 -12 -12 -12 -11 -11 -11
-17 -17 -17 -17 -16 -16 -16 -17 -16 -16 -16 -17 -17 -18 -17 -16 -16 -15 -15 -15 -14 -13 -13 -13 -13 -13 -13 -13 -13 -13 -13 -13 -13 -13 -13 -13 -13 -13 -13 -13 -13 -13 -13 -12 -12 -12 -12 -12 -12
-17 -17 -17 -17 -17 -16 -17 -16 -16 -16 -16 -16 -17 -17 -17 -17 -16 -16 -14 -14 -14 -14 -14 -14 -13 -13 -13 -13 -13 -13 -13 -13 -13 -13 -13 -13 -13 -13 -13 -13 -13 -13 -13 -12 -12 -12 -12 -12 -12
-19 -19 -18 -18 -18 -18 -17 -17 -17 -16 -16 -16 -17 -16 -17 -17 -17 -16 -15 -14 -13 -13 -14 -13 -13 -13 -13 -13 -13 -13 -13 -13 -12 -12 -13 -13 -13 -13 -13 -13 -13 -13 -12 -12 -12 -12 -12 -12 -12
-19 -19 -19 -19 -18 -18 -18 -18 -17 -17 -16 -16 -16 -16 -16 -17 -17 -17 -17 -15 -15 -14 -13 -14 -14 -14 -13 -13 -13 -13 -13 -12 -13 -12 -12 -12 -13 -13 -13 -13 -13 -13 -13 -13 -13 -12 -12 -12 -12
-19 -19 -19 -19 -19 -19 -18 -18 -17 -17 -16 -16 -16 -16 -16 -16 -16 -16 -16 -16 -15 -15 -14 -14 -13 -13 -13 -13 -13 -13 -13 -13 -13 -12 -13 -12 -13 -13 -13 -13 -13 -13 -13 -13 -13 -13 -13 -13 -12
-19 -19 -19 -19 -19 -19 -19 -18 -18 -17 -17 -16 -16 -16 -16 -16 -16 -16 -15 -15 -15 -15 -15 -14 -14 -13 -13 -13 -13 -13 -13 -12 -12 -13 -13 -13 -13 -13 -13 -13 -13 -13 -12 -12 -12 -13 -13 -13 -13
-19 -19 -19 -19 -19 -19 -19 -19 -18 -18 -18 -18 -17 -17 -16 -16 -16 -16 -16 -16 -15 -14 -14 -14 -14 -14 -14 -14 -13 -13 -13 -13 -13 -13 -14 -14 -13 -13 -13 -13 -13 -13 -13 -13 -13 -13 -13 -13 -13
-19 -19 -19 -19 -18 -18 -19 -18 -18 -18 -18 -17 -17 -17 -17 -17 -18 -16 -16 -16 -16 -15 -15 -14 -14 -14 -14 -14 -14 -14 -13 -13 -13 -14 -13 -13 -14 -13 -13 -14 -13 -13 -13 -13 -13 -13 -13 -13 -13
-18 -19 -19 -19 -19 -19 -19 -19 -19 -19 -19 -17 -17 -17 -17 -16 -17 -17 -17 -16 -16 -16 -16 -15 -14 -14 -14 -14 -14 -14 -14 -14 -13 -14 -13 -14 -14 -13 -14 -13 -13 -13 -13 -13 -13 -14 -13 -14 -14
-19 -19 -18 -19 -19 -19 -19 -19 -19 -18 -18 -19 -18 -18 -18 -16 -16 -16 -17 -17 -16 -16 -16 -16 -16 -14 -15 -15 -15 -14 -14 -14 -14 -14 -14 -14 -14 -13 -13 -14 -14 -13 -13 -13 -13 -13 -13 -13 -14
-19 -18 -18 -18 -18 -18 -18 -18 -18 -18 -18 -18 -17 -17 -17 -16 -16 -16 -17 -17 -17 -18 -17 -17 -17 -17 -16 -16 -16 -15 -15 -15 -14 -13 -14 -15 -14 -14 -14 -13 -13 -13 -14 -13 -13 -13 -14 -13 -13
Height
5818 5818 5819 5820 5823 5823 5824 5825 5821 5823 5825 5827 5827 5829 5832 5834 5836 5839 5839 5840 5842 5844 5846 5847 5848 5851 5852 5856 5857 5860 5862 5864 5866 5867 5869 5870 5870 5871 5871 5871 5871 5871 5871 5870 5870 5870 5870 5870 5869
5813 5814 5815 5816 5818 5819 5820 5816 5817 5822 5823 5823 5824 5827 5830 5832 5834 5835 5837 5839 5841 5843 5845 5846 5848 5850 5853 5855 5858 5860 5862 5864 5866 5867 5869 5870 5871 5872 5872 5872 5872 5871 5871 5870 5870 5870 5871 5871 5870
5808 5810 5811 5812 5814 5817 5815 5811 5816 5818 5820 5820 5820 5825 5826 5829 5832 5833 5834 5838 5840 5841 5844 5845 5847 5850 5853 5855 5858 5860 5862 5864 5866 5867 5869 5870 5871 5871 5872 5872 5872 5871 5870 5870 5870 5870 5871 5871 5870
5804 5805 5806 5808 5812 5812 5810 5808 5812 5813 5815 5817 5818 5821 5824 5826 5829 5829 5832 5836 5838 5840 5842 5844 5846 5849 5852 5854 5856 5859 5861 5864 5866 5867 5869 5870 5871 5871 5872 5871 5872 5872 5871 5870 5870 5870 5871 5871 5870
5798 5800 5799 5803 5808 5808 5806 5804 5808 5810 5812 5813 5815 5818 5820 5822 5827 5826 5829 5833 5835 5838 5840 5843 5844 5848 5851 5853 5855 5858 5860 5863 5865 5867 5868 5869 5870 5870 5871 5871 5872 5871 5871 5871 5871 5870 5871 5871 5871
5792 5793 5794 5799 5802 5803 5802 5801 5802 5805 5808 5809 5812 5814 5816 5818 5822 5824 5826 5829 5832 5835 5837 5840 5842 5845 5849 5851 5854 5857 5859 5861 5863 5865 5867 5868 5869 5870 5870 5871 5871 5871 5871 5872 5871 5870 5870 5870 5870
5785 5786 5788 5791 5795 5797 5799 5795 5797 5801 5802 5802 5807 5810 5812 5815 5819 5821 5823 5826 5829 5831 5835 5837 5839 5843 5846 5849 5853 5855 5858 5859 5861 5863 5864 5866 5867 5868 5869 5870 5870 5870 5871 5871 5871 5870 5870 5870 5870
5777 5777 5782 5785 5788 5791 5791 5789 5792 5794 5796 5799 5801 5805 5808 5810 5815 5818 5819 5821 5825 5828 5830 5833 5837 5839 5843 5846 5850 5853 5855 5858 5860 5861 5863 5864 5865 5866 5867 5868 5868 5869 5870 5871 5870 5870 5869 5869 5868
5768 5769 5775 5778 5779 5783 5783 5783 5787 5789 5790 5794 5796 5800 5803 5804 5809 5813 5815 5816 5821 5825 5828 5830 5833 5835 5838 5841 5846 5849 5852 5855 5857 5859 5861 5862 5863 5864 5865 5866 5866 5867 5868 5869 5869 5868 5868 5867 5866
5759 5762 5767 5768 5768 5774 5776 5778 5781 5785 5787 5790 5793 5797 5798 5799 5803 5807 5811 5813 5816 5821 5825 5827 5829 5832 5834 5838 5842 5846 5848 5851 5853 5856 5858 5859 5861 5862 5862 5863 5864 5865 5865 5866 5867 5866 5865 5865 5864
5749 5754 5758 5760 5761 5766 5767 5770 5774 5779 5784 5785 5788 5791 5794 5797 5798 5802 5805 5809 5812 5816 5820 5824 5826 5829 5831 5833 5837 5841 5844 5847 5850 5853 5854 5857 5858 5859 5860 5861 5862 5863 5863 5863 5864 5864 5863 5862 5861
5740 5745 5749 5753 5754 5757 5760 5760 5764 5770 5779 5781 5783 5787 5790 5793 5794 5797 5801 5803 5806 5810 5814 5819 5823 5826 5829 5831 5834 5837 5840 5843 5846 5849 5851 5853 5855 5856 5858 5859 5859 5860 5860 5860 5860 5861 5861 5859 5858
5732 5735 5740 5742 5745 5749 5753 5753 5755 5763 5770 5775 5777 5781 5784 5787 5789 5792 5795 5798 5801 5805 5809 5813 5817 5822 5824 5828 5830 5833 5835 5838 5842 5844 5846 5849 5850 5852 5854 5855 5855 5856 5856 5857 5857 5856 5856 5857 5854
5725 5726 5730 5734 5735 5739 5744 5747 5749 5756 5761 5766 5769 5773 5777 5780 5782 5784 5789 5792 5795 5797 5803 5806 5811 5815 5819 5823 5825 5827 5830 5832 5836 5838 5840 5842 5844 5846 5848 5850 5850 5851 5852 5852 5852 5852 5851 5852 5852
5717 5720 5723 5725 5726 5729 5736 5741 5742 5746 5748 5755 5758 5764 5768 5773 5776 5778 5781 5785 5789 5792 5795 5799 5804 5808 5812 5817 5819 5822 5825 5827 5831 5833 5834 5837 5838 5840 5842 5844 5844 5845 5846 5847 5848 5847 5847 5847 5847
5711 5713 5716 5718 5720 5724 5727 5736 5736 5738 5738 5744 5748 5754 5760 5765 5770 5773 5775 5779 5782 5786 5790 5793 5797 5802 5805 5809 5813 5816 5819 5822 5824 5829 5831 5832 5833 5834 5836 5838 5838 5840 5841 5842 5842 5842 5841 5842 5842
5706 5707 5710 5713 5715 5718 5722 5728 5729 5731 5732 5737 5741 5745 5750 5756 5761 5765 5768 5772 5775 5779 5783 5786 5789 5795 5798 5801 5805 5809 5812 5816 5817 5821 5826 5827 5828 5829 5830 5831 5832 5834 5835 5835 5835 5836 5836 5836 5836
5701 5703 5704 5707 5710 5712 5713 5717 5720 5722 5724 5728 5731 5734 5740 5746 5752 5757 5761 5766 5769 5771 5775 5778 5783 5787 5792 5795 5797 5801 5805 5809 5812 5814 5818 5819 5821 5822 5823 5825 5826 5828 5829 5829 5829 5830 5830 5830 5829
5698 5698 5699 5701 5704 5706 5706 5709 5709 5712 5717 5719 5720 5725 5730 5734 5741 5747 5751 5754 5760 5763 5766 5770 5774 5780 5783 5787 5790 5793 5797 5801 5804 5807 5808 5809 5813 5816 5817 5818 5818 5820 5821 5822 5823 5823 5823 5823 5823
5693 5693 5695 5696 5697 5700 5699 5699 5704 5706 5708 5712 5714 5717 5721 5724 5728 5733 5739 5744 5750 5757 5760 5763 5767 5773 5776 5780 5782 5785 5789 5793 5795 5798 5800 5802 5806 5809 5811 5811 5810 5811 5813 5814 5815 5816 5816 5816 5815
5689 5690 5690 5691 5691 5692 5692 5695 5698 5700 5703 5706 5709 5710 5711 5713 5717 5722 5730 5734 5740 5746 5752 5755 5759 5763 5769 5772 5775 5778 5780 5784 5788 5791 5793 5795 5796 5799 5801 5802 5802 5803 5804 5805 5807 5808 5808 5808 5808
5686 5685 5685 5685 5685 5686 5689 5690 5692 5694 5696 5698 5701 5703 5706 5710 5712 5713 5718 5722 5726 5729 5739 5745 5750 5754 5757 5761 5765 5768 5769 5774 5779 5780 5781 5783 5785 5788 5791 5793 5793 5795 5796 5797 5797 5799 5799 5799 5799
5684 5681 5680 5679 5680 5681 5683 5686 5687 5688 5690 5691 5693 5695 5699 5701 5704 5707 5711 5716 5721 5727 5731 5735 5738 5742 5746 5750 5754 5758 5761 5765 5767 5771 5774 5776 5777 5779 5782 5785 5786 5787 5788 5788 5787 5789 5789 5789 5789
5680 5677 5676 5675 5676 5677 5677 5680 5680 5682 5683 5684 5686 5688 5690 5692 5694 5697 5699 5704 5709 5715 5720 5724 5730 5732 5736 5740 5745 5748 5752 5756 5757 5762 5764 5766 5767 5769 5771 5775 5778 5778 5779 5780 5778 5778 5779 5780 5780
5677 5675 5674 5674 5674 5675 5674 5676 5676 5677 5677 5677 5679 5680 5682 5684 5686 5689 5691 5693 5697 5701 5706 5712 5717 5722 5726 5730 5735 5739 5743 5747 5750 5751 5755 5759 5760 5763 5764 5763 5767 5770 5770 5771 5770 5769 5770 5771 5771
5678 5677 5676 5675 5675 5674 5674 5673 5672 5672 5672 5672 5672 5672 5673 5675 5677 5679 5681 5683 5685 5689 5694 5698 5704 5711 5715 5719 5725 5728 5731 5736 5741 5745 5747 5750 5753 5754 5754 5755 5758 5761 5763 5763 5762 5761 5762 5762 5762
5679 5677 5676 5674 5672 5672 5670 5670 5670 5669 5668 5665 5665 5665 5665 5663 5662 5662 5666 5671 5673 5675 5681 5688 5693 5698 5704 5708 5712 5717 5721 5725 5729 5734 5738 5742 5746 5747 5745 5748 5750 5753 5753 5754 5753 5753 5753 5753 5754
5678 5676 5674 5671 5670 5668 5667 5666 5667 5665 5663 5661 5660 5659 5658 5656 5654 5652 5651 5651 5656 5660 5663 5671 5678 5685 5690 5696 5701 5704 5709 5713 5719 5722 5727 5733 5736 5737 5741 5740 5742 5743 5745 5745 5743 5743 5745 5744 5745
5679 5676 5674 5671 5669 5666 5665 5666 5664 5663 5661 5658 5656 5654 5651 5648 5646 5644 5641 5638 5640 5643 5646 5652 5660 5669 5676 5682 5688 5693 5698 5702 5707 5712 5716 5721 5724 5729 5729 5731 5733 5731 5733 5734 5733 5733 5734 5734 5736
5677 5675 5673 5671 5669 5666 5664 5664 5662 5660 5657 5654 5652 5649 5647 5643 5640 5638 5635 5632 5629 5626 5625 5632 5641 5653 5662 5669 5675 5681 5686 5690 5696 5701 5706 5711 5716 5718 5721 5722 5722 5724 5724 5719 5723 5724 5724 5724 5725
Wind_Speed
24 24 21 18 15 15 23 22 25 24 17 17 17 16 11 11 11 16 17 17 12 12 15 15 25 25 24 22 20 19 21 20 20 17 15 13 12 11 8 3 1 4 6 2 3 4 3 4 4
26 26 26 22 17 12 22 32 31 23 23 21 21 17 13 12 13 17 19 19 14 13 16 17 20 23 24 22 19 19 22 22 21 17 15 13 13 11 7 2 2 3 6 3 4 4 4 3 4
29 28 28 26 19 9 20 35 28 26 23 25 25 18 17 16 15 18 22 20 17 16 16 18 22 22 24 22 20 21 23 24 21 18 16 13 14 10 5 3 3 4 8 4 4 4 4 3 3
31 31 31 28 20 17 20 25 30 30 28 26 28 20 19 19 16 19 24 22 20 19 18 17 20 22 23 23 23 24 25 25 22 18 16 14 13 10 7 3 3 4 7 5 3 3 3 2 2
37 33 35 28 23 20 23 25 24 30 30 29 26 21 22 20 17 19 23 24 24 21 20 18 19 19 21 24 25 25 26 26 23 20 17 14 13 10 7 4 3 4 5 7 4 2 2 3 2
35 35 35 29 23 26 25 26 23 29 31 29 25 22 25 23 21 19 21 28 28 25 22 21 20 20 21 23 25 27 27 27 24 21 18 16 13 11 8 4 2 2 3 5 6 4 2 1 2
35 38 34 32 27 28 25 31 28 26 32 34 27 27 27 25 23 20 19 27 29 28 26 22 22 21 21 22 25 28 28 29 26 23 20 17 14 12 9 6 3 1 0 1 1 4 5 4 4
38 38 37 33 26 25 29 34 32 26 30 32 32 28 29 28 25 24 23 25 31 31 29 26 23 21 23 23 26 28 30 31 28 24 22 19 16 14 11 8 5 3 2 2 3 2 2 4 6
41 42 38 38 35 27 35 38 35 34 29 28 33 33 27 32 28 28 26 26 29 32 30 28 25 23 24 26 28 29 30 31 30 27 23 21 18 16 13 10 8 6 5 4 5 7 5 4 6
43 41 34 35 42 38 39 39 38 36 32 28 28 31 32 22 28 31 29 28 27 32 32 31 28 26 25 29 29 30 29 31 30 28 25 23 19 18 16 13 11 9 9 7 7 9 9 8 8
43 43 37 37 39 35 40 44 41 39 33 31 27 28 32 32 30 30 32 30 28 30 35 33 32 29 27 29 32 31 32 29 31 31 29 25 23 21 19 17 15 14 12 12 11 11 12 11 11
35 36 36 37 39 38 34 45 44 40 34 31 30 27 27 32 35 33 33 34 30 29 35 36 34 32 30 28 29 32 32 32 29 31 31 30 27 25 23 21 20 19 17 16 15 14 14 15 13
34 35 34 34 37 39 36 37 47 42 36 33 33 33 31 30 38 37 35 33 38 25 31 37 36 35 33 31 30 31 33 34 32 29 31 32 31 30 28 26 25 24 23 21 20 19 17 15 17
29 32 33 34 36 37 37 36 39 45 36 35 36 37 35 33 31 39 38 34 32 34 32 35 38 38 37 34 33 32 32 32 33 33 31 31 32 32 32 31 31 29 28 26 24 22 22 19 18
23 27 30 32 35 39 37 36 42 37 46 41 40 41 39 36 35 33 39 39 36 37 37 34 36 39 38 37 37 34 33 32 32 33 34 32 31 33 33 34 34 33 31 30 29 26 25 23 21
21 20 24 30 33 35 37 34 36 40 43 49 48 42 41 39 38 36 35 39 42 40 39 39 32 35 39 40 40 39 36 35 34 32 31 31 33 33 33 33 34 33 32 32 31 29 28 27 24
17 17 18 23 29 33 35 32 35 37 42 43 46 43 43 40 39 40 39 37 39 44 44 43 43 34 35 39 41 41 41 39 38 36 33 33 33 34 35 35 34 33 32 33 32 31 30 29 29
15 17 17 16 22 29 34 31 34 35 39 41 38 41 44 37 38 40 40 39 38 40 46 46 43 44 39 36 39 41 40 41 41 40 38 38 37 36 36 36 37 36 35 35 35 33 31 31 32
14 16 18 18 17 17 27 26 31 35 34 36 40 39 40 46 40 40 42 43 43 41 40 45 48 43 46 42 41 41 37 40 41 42 44 42 40 39 39 38 39 39 39 38 36 35 35 35 34
14 15 16 17 20 18 20 21 26 30 34 35 35 35 39 42 41 42 41 43 43 43 42 40 41 46 48 46 46 39 41 43 41 43 44 44 41 40 39 40 42 41 39 39 39 39 38 37 37
15 15 15 16 18 20 22 21 22 25 28 31 32 36 38 38 42 45 45 45 45 45 44 44 43 40 44 50 49 45 42 40 39 40 43 43 43 42 40 40 42 43 42 42 42 40 41 40 40
11 13 14 16 16 16 18 16 20 21 25 27 33 26 31 35 38 42 49 47 52 52 47 48 46 44 43 41 45 48 48 38 42 44 44 46 46 46 45 44 44 43 43 45 45 44 43 43 42
14 13 11 13 13 15 16 16 15 20 25 24 26 29 30 29 33 40 41 43 44 47 49 49 49 48 47 46 45 44 47 43 38 37 38 41 46 46 47 46 45 44 44 45 47 45 45 45 45
16 13 9 7 8 9 12 12 15 20 24 29 32 30 32 36 37 39 41 43 48 48 47 51 52 52 52 51 49 46 46 47 48 43 41 36 39 43 44 45 45 45 45 46 48 48 47 47 47
16 10 7 3 1 7 8 8 12 17 21 26 31 36 38 38 41 43 46 49 48 50 51 51 52 53 54 54 53 51 49 43 54 42 41 46 30 36 43 45 43 42 43 43 45 47 47 47 47
12 6 7 3 2 5 8 10 12 12 13 15 19 24 33 44 46 47 50 52 54 55 55 56 55 54 54 55 55 55 54 49 48 45 47 45 50 36 38 40 43 41 40 40 42 44 43 44 44
10 10 10 8 9 11 13 13 14 17 20 19 10 9 15 21 30 45 57 56 58 60 60 59 58 55 55 56 56 55 54 53 49 44 43 41 42 48 43 42 39 40 41 41 41 41 39 40 41
15 13 9 6 6 8 10 11 10 8 10 3 7 11 17 20 24 31 47 63 66 65 65 63 63 60 57 56 57 57 56 55 52 49 47 44 39 35 46 42 42 38 39 40 38 40 40 40 37
14 13 9 8 5 2 6 6 7 8 6 4 5 7 12 21 24 21 25 34 54 70 73 70 66 63 56 54 54 57 56 54 53 53 50 45 46 40 45 40 40 39 41 40 38 44 41 41 38
15 13 7 6 6 5 4 7 6 8 8 7 11 11 11 15 17 24 21 23 29 38 62 78 72 66 60 51 47 50 49 49 54 53 51 43 44 46 45 49 42 49 53 47 40 43 33 39 45
Wind_Direction
247 250 250 247 246 227 218 219 223 224 222 220 219 228 221 219 214 208 198 180 185 189 194 198 178 182 181 181 181 182 177 173 168 163 160 157 157 165 156 153 53 79 49 83 131 119 101 120 120
250 247 248 246 245 225 213 224 223 226 227 225 223 219 222 215 212 206 206 186 184 186 190 195 189 190 186 184 189 187 181 178 171 169 169 164 170 174 177 176 79 81 46 97 137 113 80 68 100
254 252 247 245 240 241 223 232 219 223 233 233 231 216 218 220 211 211 209 193 188 187 189 193 196 201 198 193 197 191 187 180 176 176 174 170 177 182 181 167 107 87 44 72 122 99 75 74 89
257 253 251 247 241 242 239 236 228 222 221 232 235 223 219 220 202 216 211 200 195 194 193 189 194 202 205 202 202 195 190 183 181 181 180 175 181 186 189 165 110 83 56 64 97 93 85 73 74
250 253 251 247 244 242 245 244 225 230 224 226 232 228 222 223 212 212 214 204 202 199 195 195 192 196 202 206 203 199 193 188 188 185 184 183 184 189 188 178 141 86 75 58 81 89 56 50 14
250 250 249 249 241 241 241 248 235 226 229 228 227 225 225 221 219 213 214 208 205 206 199 203 200 199 204 206 205 201 199 192 195 192 189 189 186 191 191 190 163 116 112 79 63 65 42 357 327
249 247 251 247 238 240 240 243 245 235 233 226 224 227 224 221 223 222 220 212 209 207 208 205 208 208 206 210 208 203 205 199 201 198 196 195 190 195 197 201 205 220 138 148 75 55 37 17 328
253 251 246 248 246 241 238 241 244 235 236 234 226 220 223 225 222 221 226 220 213 212 209 210 210 214 208 206 209 208 206 208 207 206 202 203 199 201 205 214 221 254 292 307 286 277 351 2 359
248 251 254 249 249 240 237 238 236 239 235 242 229 225 228 224 222 221 221 224 217 215 214 210 212 212 212 205 206 211 211 212 213 214 211 211 209 211 212 221 233 248 268 283 290 290 273 290 325
250 249 251 247 248 243 237 240 237 236 240 237 241 226 227 232 222 225 219 223 225 218 218 214 212 215 210 206 208 214 218 216 218 219 221 220 219 220 224 228 238 249 265 273 277 282 288 283 291
250 250 247 247 253 246 238 238 240 236 237 239 234 234 228 227 236 228 223 225 228 224 220 221 217 216 216 210 209 214 220 220 221 223 227 228 229 228 233 239 245 254 264 273 279 283 285 286 287
248 250 249 248 248 254 258 230 237 238 232 238 237 232 231 226 227 232 230 220 224 223 223 220 222 219 220 219 219 218 223 224 226 226 229 232 235 238 240 246 251 258 264 272 278 279 283 286 284
249 245 241 240 245 249 250 248 233 239 235 233 240 236 229 229 236 236 235 232 226 223 227 224 221 223 223 224 226 226 227 228 229 232 232 234 237 240 244 249 254 258 263 269 273 276 277 278 284
253 244 241 238 241 241 241 246 250 235 238 235 235 237 232 229 233 237 234 231 228 216 226 226 224 223 226 227 230 232 233 235 233 235 236 234 237 240 244 249 253 258 262 266 269 272 275 275 275
261 248 241 236 238 240 241 239 246 245 235 230 233 234 235 230 231 233 233 235 231 224 226 227 226 226 227 229 232 234 239 242 241 239 240 239 240 241 244 246 250 254 259 263 267 268 270 272 276
262 258 247 241 238 241 240 238 246 241 242 232 232 235 235 234 231 232 235 232 233 233 231 229 229 228 230 232 234 235 237 242 247 246 249 247 245 246 247 250 253 256 259 261 264 265 265 268 270
263 255 255 248 243 239 240 239 238 241 247 244 237 239 236 235 234 235 235 237 236 234 236 237 229 221 228 233 236 238 238 240 244 248 247 250 250 250 249 250 251 253 256 260 262 264 264 267 268
264 261 261 252 245 241 238 236 238 240 246 245 242 244 240 235 238 238 236 237 238 236 235 237 238 230 227 232 237 239 241 243 246 249 249 249 249 251 253 255 255 255 255 258 261 264 265 265 266
262 255 256 258 247 244 244 240 236 238 236 243 244 237 241 233 234 234 237 235 235 236 236 238 238 237 235 230 232 234 239 243 245 247 249 247 247 249 253 256 258 257 258 259 261 263 265 265 265
276 261 250 251 246 236 246 242 238 237 239 236 238 240 238 244 228 231 232 237 236 237 239 240 242 238 239 240 243 244 242 241 248 246 249 252 250 250 251 254 257 258 259 260 261 261 262 264 265
276 272 261 253 249 236 242 246 242 239 240 241 243 240 232 232 241 229 230 230 235 235 234 239 240 241 242 242 241 244 241 245 244 255 251 252 251 249 248 249 252 256 258 259 260 261 263 264 265
313 285 269 257 250 251 237 248 245 246 247 246 244 246 246 247 237 243 228 228 230 230 231 233 236 241 240 241 244 242 248 246 244 250 253 243 246 249 248 248 251 254 258 261 262 262 263 264 263
328 317 302 270 253 251 250 243 242 240 247 245 247 244 243 236 236 239 242 239 238 239 238 234 232 234 237 238 234 240 241 239 253 253 256 265 245 250 253 253 254 256 259 261 263 264 265 265 266
323 322 317 280 245 238 245 245 247 244 242 245 247 245 245 244 239 240 243 240 238 235 236 238 240 236 236 238 239 240 239 235 247 252 250 266 255 244 250 256 257 257 259 261 263 265 265 266 267
352 13 17 352 151 177 203 229 238 250 255 253 251 251 249 247 248 246 245 247 242 237 235 235 238 239 242 240 241 242 244 243 251 253 254 255 270 266 263 252 253 257 259 261 264 267 269 271 272
18 47 30 105 175 251 237 254 257 269 269 273 268 266 261 254 250 247 245 246 246 243 239 235 233 233 237 242 243 243 246 246 246 251 252 256 253 266 267 250 254 257 262 267 268 271 274 276 274
332 318 309 286 279 271 272 268 263 267 272 271 249 256 258 258 256 249 245 243 244 247 244 241 238 237 234 236 241 242 245 247 250 253 255 257 259 257 257 270 256 263 265 271 273 274 276 277 278
347 355 348 331 316 279 255 263 274 267 288 279 216 247 272 291 284 265 253 245 239 240 243 243 239 237 237 235 237 241 241 244 245 246 249 250 248 255 263 264 266 263 274 271 281 270 274 278 278
334 346 356 353 23 150 233 250 257 265 264 271 291 297 299 288 295 284 283 265 254 245 236 238 239 237 236 236 235 238 241 244 244 247 247 248 253 250 254 258 260 256 271 271 281 272 269 273 277
326 332 358 338 357 352 252 243 269 285 270 270 281 286 309 316 303 269 283 287 282 277 245 236 234 235 234 233 234 236 239 244 244 245 249 249 248 251 249 253 258 259 264 263 273 284 267 277 283